Regional Weather Roundup
Issued by NWS Cleveland, OH

Home | Current Version | Previous Version | Graphics & Text | Print | Product List | Glossary On
Versions: 1 2 3 4 5 6 7 8 9 10 11 12 13 14 15 16 17 18 19 20 21 22 23 24 25 26 27 28 29 30 31 32 33 34 35 36 37 38 39 40 41 42 43 44 45 46 47 48 49 50
476
ASUS41 KCLE 200002
RWRCLE
OHIO REGIONAL WEATHER ROUNDUP
NATIONAL WEATHER SERVICE CLEVELAND, OH
800 PM EDT THU OCT 19 2017

NOTE: "FAIR" INDICATES FEW OR NO CLOUDS BELOW 12,000 FEET WITH NO
SIGNIFICANT WEATHER AND/OR OBSTRUCTIONS TO VISIBILITY.

OHZ001>008-015>018-024>027-034-035-043-044-200100-
   NORTHWEST OHIO

CITY           SKY/WX    TMP DP  RH WIND       PRES   REMARKS
DEFIANCE       CLEAR     56  40  55 CALM      30.17R
FINDLAY        CLEAR     62  49  62 W5        30.16R
TOLEDO EXPRESS CLOUDY    56  47  71 CALM      30.16R
TOLEDO EXEC    CLOUDY    58  39  49 W7        30.16R
LIMA           CLEAR     61  51  70 W6        30.18R
$$

OHZ009>014-019>023-028>033-038-089-200100-
   NORTHEAST OHIO

CITY           SKY/WX    TMP DP  RH WIND       PRES   REMARKS
CLE-HOPKINS    PTCLDY    64  50  60 NW5       30.17R
CLE-LAKEFRONT  CLEAR     64  58  80 W7        30.14R
CUY CO. ARPT   PTCLDY    64  55  72 NW12      30.15R
LORAIN-ELYRIA  CLEAR     63  46  54 W3        30.16R
ASHTABULA      CLOUDY    61  53  75 W6        30.15R
AKRON-CANTON   CLEAR     63  48  58 SW5       30.16R
WOOSTER        CLEAR     53  48  83 W5        30.17R
MANSFIELD      CLEAR     64  48  56 W5        30.18R
YOUNGSTOWN     PTCLDY    62  49  62 SW6       30.15R
$$

OHZ042-051>053-060>062-070>072-077>081-200100-
  SOUTHWEST OHIO

CITY           SKY/WX    TMP DP  RH WIND       PRES   REMARKS
CINC-COVINGTON PTCLDY    61  53  75 S5        30.21R
CINC-LUNKEN    CLEAR     58  54  86 CALM      30.22R
HAMILTON       CLEAR     57  51  80 CALM      30.21R
DAYTON         CLOUDY    62  51  67 SW7       30.21R
WRIGHT-PAT AFB CLOUDY    60  50  69 SW5       30.20R
DAYTON GENERAL CLEAR     62  49  62 S5        30.20R
WILMINGTON     CLEAR     59  51  75 SW5       30.21R
$$

OHZ036-037-039>041-045>050-054>059-063>069-073>076-082>088-200100-
  CENTRAL AND SOUTHEAST OHIO

CITY           SKY/WX    TMP DP  RH WIND       PRES   REMARKS
COLUMBUS       PTCLDY    67  50  54 SW7       30.18R
OSU AIRPORT    CLEAR     66  51  58 SW8       30.18R
BOLTON FIELD   CLEAR     63  50  62 SW7       30.20R
RICKENBACK AFB CLEAR     62  49  62 SW3       30.19R
NEWARK         CLEAR     63  47  55 SW6       30.18R
MARION         CLEAR     65  46  50 W5        30.18R
LANCASTER      CLEAR     62  49  62 SW5       30.20R
ZANESVILLE     CLEAR     63  48  58 SW5       30.19R
NEW PHILLY     NOT AVBL
$$




USA.gov is the U.S. government's official web portal to all federal, state and local government web resources and services.